Retour au catalogue

STARLINK-34815

ActifCommunicationsVLEO
NORAD 65099·PAYLOAD·🇺🇸 United States

Lancé Aug 4, 2025 depuis Cape Canaveral Space Force Station

Loading…

Prochains Passages (prochaines 24 heures)

TLE

FraisSource: CelesTrak SupGP

Époque: Sep 15, 2026, 02:42 UTC

1 65099C 25167X   26258.11298611 -.00041568  00000+0 -12281-2 0  2581
2 65099  53.1573 222.5715 0001274  90.6394 177.4294 15.34412945    17

Suivez STARLINK-34815 en temps réel avec AllMySat

Download on the App Store